SCP
0 0 0 0 0 0 0 0 0 0 -0 0 0 0 0 0 0 -0 -0 -0 -0 -0 -0 -0 -0 -0 -0 0 -0 0 -0 -0 0 0 0 0 0 -0 -0 -0 -0 -0 -0 -0
0 0 -0 0 0 0 0 0 0 -0 0 0 -0 0 0 0 -0 -0 -0 -0 0 -0 -0 -0 -0 -0 -0 -0 -0 -0 -0 0 0 -0 -0 0 -0 -0 -0 -0 -0 -0 -0 -0
0 -0 -0 0 0 0 0 0 0 -0 0 0 1 1 0 0 0 0 0 -0 -0 -0 -0 -0 -0 -0 -0 -0 -0 -0 -0 -0 -0 -0 -0 -0 0 0 0 -0 -0 -0 -0 -0
-0 -0 0 0 0 0 0 0 -0 -0 0 0 0 0 0 0 0 0 0 0 -0 -0 -0 -0 -0 -0 -0 -0 -0 -0 -0 -0 -0 -0 -0 -0 -0 0 0 0 -0 -0 0 -0
0 0 0 0 0 0 0 0 1 0 0 0 0 0 0 0 0 0 0 0 -0 -0 -0 -0 -0 -0 -0 -0 -0 -0 -0 -0 -0 -0 -0 0 0 0 0 -0 -0 0 0 0
-0 0 0 0 0 0 0 0 0 0 0 0 0 0 0 0 0 0 0 0 -0 -0 -0 -0 -0 -0 -0 -0 -0 -0 -0 -0 -0 0 -0 -0 -0 0 0 0 -0 0 0 0
-0 -0 -0 0 0 0 0 0 0 0 0 0 0 0 0 0 0 0 0 0 -0 -0 -0 -0 -0 -0 -0 -0 -0 0 -0 -0 -0 0 0 0 0 0 0 0 -0 0 0 0
-0 -0 0 0 0 0 0 0 0 0 0 0 0 0 0 0 0 0 0 0 -0 -0 -0 -0 -0 -0 -0 -0 0 0 -0 -0 -0 -0 0 0 0 0 0 0 0 0 0 0
0 -0 0 0 0 0 0 0 0 0 0 0 0 0 0 0 0 0 0 0 0 -0 -0 -0 -0 -0 -0 -0 0 0 -0 -0 -0 -0 -0 0 0 0 0 0 0 0 0 0
-0 0 0 0 0 0 0 0 0 0 0 0 0 0 0 0 0 0 0 0 0 -0 -0 -0 -0 -0 -0 -0 0 -0 -0 -0 -0 -0 -0 0 0 0 0 0 0 -0 0 0
0 0 0 0 0 0 0 0 0 0 0 0 0 0 0 0 0 0 0 0 0 0 0 -0 -0 -0 0 -0 0 -0 -0 -0 -0 -0 -0 0 0 0 0 0 0 0 0 0
-0 0 0 0 -0 0 0 0 0 0 0 0 0 0 0 0 0 0 0 0 0 0 0 -0 -0 -0 -0 -0 -0 -0 -0 -0 -0 -0 -0 0 0 0 0 0 0 0 0 0
-0 0 0 0 0 0 0 0 0 0 0 0 0 0 0 0 0 0 0 0 0 0 0 0 -0 -0 -0 -0 -0 -0 -0 -0 -0 -0 0 0 0 0 0 0 0 0 0 0
0 -0 0 0 0 0 0 0 0 0 0 0 0 0 0 0 0 0 0 0 0 0 0 0 -0 -0 -0 -0 -0 -0 -0 -0 -0 0 0 0 0 0 0 0 0 0 -0 0
-0 0 0 0 0 0 0 0 0 0 0 0 0 0 0 0 0 0 0 0 0 0 0 0 0 -0 -0 -0 -0 -0 -0 0 0 0 0 0 0 0 0 0 -0 0 0 -0
-0 0 0 0 0 0 0 0 0 0 0 0 0 0 0 0 0 0 0 0 0 1 1 0 0 0 0 -0 -0 -0 -0 -0 0 0 0 0 0 0 0 0 0 -0 -0 -0
0 0 0 0 0 0 0 0 0 0 0 0 0 0 0 0 0 0 0 0 0 0 0 0 0 1 0 0 -0 -0 0 0 -0 0 0 0 0 0 0 0 0 0 0 0
-0 -0 -0 0 0 0 0 0 0 0 0 0 0 0 0 0 0 0 0 0 0 0 0 0 0 0 0 0 0 0 0 0 0 0 0 0 0 0 0 0 0 0 0 0
-0 0 -0 0 0 0 0 0 0 0 0 0 0 0 0 0 0 0 0 0 0 0 0 0 0 0 0 0 0 0 0 0 0 0 0 0 0 0 0 0 0 0 0 0
-0 -0 -0 -0 -0 0 0 0 0 0 0 0 0 0 0 0 0 0 0 0 0 0 0 0 0 0 0 0 0 0 0 0 0 0 0 0 0 0 0 0 0 0 0 0
-0 -0 -0 -0 -0 -0 0 0 0 0 0 0 0 0 0 0 0 0 0 0 0 0 0 0 0 0 0 0 0 0 0 0 0 0 0 0 0 0 0 0 0 0 0 0
-0 -0 -0 -0 -0 -0 0 0 0 0 0 0 0 0 0 0 0 0 0 0 0 0 0 0 0 0 0 0 0 0 0 0 0 0 0 0 0 0 0 0 0 0 0 0
0 0 0 -0 -0 -0 -0 -0 -0 -0 0 0 0 0 0 0 0 0 0 0 0 0 0 0 0 0 0 0 0 0 0 0 1 0 0 0 0 0 0 0 0 0 0 0
0 0 0 0 0 0 0 0 0 -0 -0 0 0 0 0 0 0 0 0 0 0 0 0 0 0 0 0 0 0 0 0 0 0 0 0 0 0 0 0 0 0 0 0 0
0 -0 0 0 0 0 0 0 0 0 0 0 0 0 0 0 0 0 0 0 0 0 0 0 0 0 0 0 0 0 0 0 0 0 0 0 0 0 0 0 0 0 0 0
0 0 0 0 -0 -0 -0 -0 -0 -0 0 0 0 0 0 0 0 0 0 0 0 0 0 0 0 0 0 0 0 0 0 0 0 0 0 0 0 0 0 0 0 0 0 0
0 0 0 0 -0 -0 0 -0 -0 -0 -0 -0 -0 -0 0 0 0 0 0 0 0 0 0 0 0 0 0 0 0 0 0 0 0 0 0 0 0 0 0 0 0 0 0 0
Wind_Speed_500mb
29 39 21 26 39 39 35 29 23 23 21 25 17 30 37 59 62 64 66 71 71 70 64 59 52 51 38 43 33 30 30 24 12 7 15 25 21 27 21 21 16 9 5 5
29 36 19 28 41 39 37 42 30 40 30 19 21 41 33 53 62 61 65 68 71 70 66 63 57 51 41 45 32 31 31 20 10 11 19 17 23 31 20 21 16 13 12 6
11 10 14 10 34 42 29 34 35 39 19 12 18 16 18 47 55 62 64 68 72 72 68 64 59 49 41 46 39 31 27 18 16 22 15 15 21 28 26 24 18 16 13 11
10 6 8 4 19 22 25 25 39 38 26 30 35 41 51 47 42 53 68 73 69 70 67 61 55 46 43 46 37 31 26 20 25 25 23 22 21 25 24 23 20 17 14 10
6 6 13 20 30 20 20 26 32 41 37 30 19 59 32 42 37 31 39 74 73 71 67 62 55 50 48 44 38 35 28 30 29 27 25 21 19 21 23 26 25 23 16 11
5 6 6 8 34 55 37 14 25 19 25 5 31 13 3 29 25 26 29 57 73 71 68 62 55 52 48 43 40 41 36 34 39 28 17 25 20 17 14 17 20 19 20 15
7 6 9 30 52 74 8 3 39 24 25 25 4 3 19 22 27 22 31 59 70 71 70 63 57 53 51 44 43 38 34 38 35 29 21 17 18 19 20 17 19 25 26 16
2 6 7 34 38 12 12 42 47 23 31 25 13 20 29 29 32 20 22 30 68 72 68 61 56 53 52 47 46 39 38 45 44 34 22 20 18 25 20 17 23 29 27 21
12 5 6 41 34 38 34 29 34 37 33 33 34 40 35 33 32 22 17 21 61 64 66 60 56 53 54 48 48 42 40 43 43 32 23 18 23 27 23 22 28 31 26 26
3 9 10 18 42 54 54 41 50 46 32 41 44 47 46 45 42 34 20 3 10 64 66 63 56 52 50 51 52 44 46 47 43 34 31 23 27 26 27 27 30 30 27 25
7 7 10 13 41 53 50 43 49 44 48 41 37 43 44 47 48 38 28 23 4 63 64 60 56 52 53 52 54 45 53 47 46 38 36 25 32 29 20 15 12 20 18 21
4 22 17 36 31 40 49 48 39 42 49 48 46 41 41 48 43 44 41 22 12 21 63 61 56 53 56 53 60 51 58 54 52 43 39 32 38 38 31 23 15 19 14 13
8 20 20 24 28 39 36 36 41 42 37 39 42 40 41 49 42 41 41 34 19 12 58 64 60 56 54 58 61 55 66 60 58 50 45 40 37 35 33 29 17 17 25 20
22 27 15 33 34 39 24 35 36 43 30 33 38 36 37 42 39 45 40 44 31 12 12 64 61 57 51 61 59 58 64 65 61 53 51 47 42 44 39 37 32 27 30 37
28 16 15 17 20 37 39 41 44 41 41 33 31 30 33 38 39 46 39 39 34 21 11 28 65 59 53 60 64 66 62 66 60 55 52 53 46 48 45 45 43 36 34 41
29 19 18 22 25 28 30 37 43 46 40 36 34 31 28 30 32 39 33 41 53 39 29 5 59 62 57 55 63 67 67 66 61 53 58 53 54 54 52 50 47 46 49 49
27 30 25 26 27 26 27 25 25 25 23 31 33 32 26 26 25 34 32 42 38 35 30 31 17 49 65 61 67 69 72 70 65 59 55 56 55 57 54 56 56 53 43 49
26 19 17 27 22 24 27 27 24 19 26 30 23 29 31 23 27 29 32 35 37 44 43 38 27 21 42 61 70 72 71 69 67 63 63 61 58 57 59 60 58 58 55 50
22 31 22 25 28 24 29 24 21 18 16 21 23 27 28 25 22 21 32 31 36 47 51 45 27 14 19 23 63 75 75 69 66 63 64 63 63 63 62 62 63 60 59 59
30 33 27 35 34 35 33 36 32 33 28 18 19 20 24 29 27 21 22 29 36 37 34 46 38 27 6 13 21 49 61 75 70 61 60 71 67 67 70 65 64 64 61 67
25 25 22 25 29 30 28 31 30 32 34 33 24 21 21 20 26 26 23 27 29 24 22 23 36 36 25 9 3 20 31 34 68 70 62 57 69 70 67 73 72 70 69 72
18 23 19 22 19 23 23 27 27 38 38 44 53 39 21 20 27 27 22 30 31 24 23 26 29 29 27 12 10 13 4 10 11 47 76 70 66 71 78 70 76 78 74 76
14 20 17 14 15 16 23 26 25 36 46 46 49 55 61 55 42 34 34 34 35 28 24 26 29 33 26 23 18 11 11 15 12 16 4 45 74 76 76 84 78 79 80 80
9 13 12 13 16 19 23 19 26 34 37 47 48 47 53 61 60 56 42 34 29 27 26 26 27 30 29 18 19 20 17 14 18 18 18 13 5 25 56 75 84 84 84 85
8 18 16 8 14 19 17 21 19 16 31 38 44 44 51 55 61 64 65 53 44 37 20 20 23 24 24 21 19 18 20 24 36 30 31 29 20 19 30 35 59 91 82 81
15 14 16 10 17 17 22 15 20 22 21 25 32 40 47 49 57 66 72 72 62 49 42 31 21 18 21 26 26 27 22 19 24 26 25 31 36 34 32 14 13 27 77 63
15 24 22 24 13 24 16 17 19 18 22 18 21 34 42 45 50 59 64 70 75 70 57 47 39 28 23 24 26 24 22 19 19 18 19 27 28 30 32 30 24 16 15 24
Wind_Direction_500mb
274 283 279 266 284 299 304 261 230 233 263 224 268 140 138 140 139 143 142 148 155 160 160 166 164 167 166 173 169 173 183 185 187 204 161 155 169 162 168 171 172 165 171 98
286 275 194 251 268 281 278 281 267 247 245 289 258 130 132 142 142 144 149 154 160 164 165 168 168 168 165 174 168 180 177 177 185 142 138 153 166 179 166 169 168 158 155 178
289 182 163 298 256 264 261 274 276 243 196 228 96 73 139 140 145 149 153 158 165 166 168 169 170 168 170 174 171 180 169 168 157 155 153 147 163 166 174 168 162 177 193 180
256 139 198 233 339 228 237 278 320 251 169 110 95 72 52 89 127 158 156 163 167 169 170 170 170 169 170 172 173 178 171 161 154 155 140 147 154 161 164 172 176 195 189 172
270 222 334 351 350 354 336 25 356 73 64 22 2 83 24 45 81 81 149 170 171 172 170 168 169 170 170 169 173 181 171 161 164 163 158 161 169 168 173 186 192 196 208 189
15 299 279 184 324 331 314 64 343 15 76 28 6 100 247 39 52 77 98 173 169 170 169 167 169 171 173 172 177 185 179 165 167 170 169 171 193 195 198 197 202 195 187 195
197 194 246 335 333 310 121 39 311 341 54 51 9 210 75 66 58 82 68 161 170 170 170 170 171 174 174 177 181 179 180 178 177 174 168 190 189 178 168 167 173 181 185 178
210 43 337 358 319 57 334 330 298 30 31 59 50 51 52 50 54 62 67 131 171 170 170 172 174 176 176 182 179 183 182 183 178 170 168 171 171 167 165 153 158 166 169 167
354 75 336 330 334 360 322 287 342 58 29 27 37 40 41 40 45 41 40 79 174 174 171 175 179 184 179 184 179 183 184 185 178 175 181 186 168 158 154 143 145 154 158 149
17 1 311 328 346 345 337 343 10 32 36 31 37 30 33 32 37 29 42 110 161 179 175 177 183 187 185 185 179 184 187 184 179 180 178 174 159 146 158 154 153 153 159 162
319 301 327 352 345 338 333 357 11 10 22 29 35 31 26 31 24 12 17 42 263 184 184 182 186 187 185 188 184 190 188 185 182 186 187 173 171 166 174 185 163 166 162 171
292 331 335 317 334 357 334 341 0 5 9 25 34 37 27 28 20 12 11 351 18 203 194 189 189 187 186 190 188 194 191 185 184 187 192 179 177 187 204 196 185 219 173 119
310 319 331 330 352 339 335 346 358 360 19 25 28 30 28 25 19 12 8 16 3 345 209 196 191 191 189 191 194 202 195 190 183 187 191 192 190 198 194 191 182 158 188 169
342 338 331 347 345 4 2 356 2 11 20 23 23 26 19 13 13 14 1 0 356 6 146 199 196 195 193 192 198 205 204 200 199 200 204 203 204 205 210 208 201 182 171 185
341 359 344 340 350 359 18 18 23 12 16 16 14 18 9 0 1 10 4 0 11 34 58 198 202 198 196 192 201 203 207 203 205 204 206 209 206 208 213 214 216 216 199 181
8 24 22 28 22 15 13 16 15 13 11 9 24 13 354 355 357 4 5 16 19 21 26 349 200 205 200 195 200 207 208 210 208 207 209 209 211 211 217 220 218 219 219 216
12 12 20 23 36 32 20 11 6 358 354 1 347 347 352 353 360 358 358 12 21 30 45 47 85 192 203 201 201 208 207 211 211 210 212 214 214 215 214 222 223 224 224 223
48 37 41 41 46 39 22 7 1 349 353 350 338 345 2 346 350 352 354 10 29 46 44 39 44 128 187 203 206 208 212 212 214 213 213 218 220 219 218 221 229 230 231 230
61 62 48 44 36 39 26 12 26 6 336 347 351 347 6 21 19 357 1 36 37 41 32 19 19 49 111 183 203 209 215 217 216 219 216 216 222 223 222 222 226 233 236 236
92 65 56 51 52 47 47 37 36 32 21 3 356 359 14 22 24 6 24 47 44 36 43 23 11 18 28 47 182 193 208 219 220 217 218 217 219 225 226 225 225 227 233 238
91 83 68 55 45 51 53 40 32 31 32 30 19 3 3 5 12 22 34 32 25 24 20 24 11 13 16 329 9 184 203 217 224 227 225 224 224 225 231 230 228 228 228 236
90 75 84 67 60 42 42 45 36 29 41 33 38 43 25 359 356 8 3 0 359 357 360 359 359 355 2 5 354 261 230 210 270 236 233 233 236 233 229 233 234 231 231 234
63 82 83 71 67 77 59 45 46 27 31 34 33 34 36 34 22 0 339 332 329 332 332 332 329 329 337 3 7 358 242 273 352 294 268 243 244 244 238 233 234 237 238 235
119 106 102 83 106 65 67 67 57 46 31 26 35 42 33 31 39 34 26 11 353 308 296 300 310 314 322 345 16 15 344 322 297 319 292 300 259 229 248 251 245 243 238 240
173 142 138 116 109 82 78 51 32 60 43 19 23 46 40 37 39 32 33 29 22 16 359 285 277 289 316 333 339 345 340 342 322 305 301 306 311 287 252 286 253 248 248 245
175 162 166 123 97 107 89 76 44 52 72 32 25 42 40 40 43 41 38 38 34 26 23 13 344 314 317 331 340 341 330 311 308 313 331 331 316 308 296 289 353 257 247 254
185 162 145 126 88 95 112 72 75 44 52 56 30 44 41 38 40 40 38 37 35 34 29 21 17 5 342 339 348 352 347 349 2 348 316 312 314 309 289 285 272 278 256 261
Wind_Speed_850mb
29 39 21 26 39 39 35 29 23 23 21 25 17 30 37 59 62 64 66 71 71 70 64 59 52 51 38 43 33 30 30 24 12 7 15 25 21 27 21 21 16 9 5 5
29 36 19 28 41 39 37 42 30 40 30 19 21 41 33 53 62 61 65 68 71 70 66 63 57 51 41 45 32 31 31 20 10 11 19 17 23 31 20 21 16 13 12 6
11 10 14 10 34 42 29 34 35 39 19 12 18 16 18 47 55 62 64 68 72 72 68 64 59 49 41 46 39 31 27 18 16 22 15 15 21 28 26 24 18 16 13 11
10 6 8 4 19 22 25 25 39 38 26 30 35 41 51 47 42 53 68 73 69 70 67 61 55 46 43 46 37 31 26 20 25 25 23 22 21 25 24 23 20 17 14 10
6 6 13 20 30 20 20 26 32 41 37 30 19 59 32 42 37 31 39 74 73 71 67 62 55 50 48 44 38 35 28 30 29 27 25 21 19 21 23 26 25 23 16 11
5 6 6 8 34 55 37 14 25 19 25 5 31 13 3 29 25 26 29 57 73 71 68 62 55 52 48 43 40 41 36 34 39 28 17 25 20 17 14 17 20 19 20 15
7 6 9 30 52 74 8 3 39 24 25 25 4 3 19 22 27 22 31 59 70 71 70 63 57 53 51 44 43 38 34 38 35 29 21 17 18 19 20 17 19 25 26 16
2 6 7 34 38 12 12 42 47 23 31 25 13 20 29 29 32 20 22 30 68 72 68 61 56 53 52 47 46 39 38 45 44 34 22 20 18 25 20 17 23 29 27 21
12 5 6 41 34 38 34 29 34 37 33 33 34 40 35 33 32 22 17 21 61 64 66 60 56 53 54 48 48 42 40 43 43 32 23 18 23 27 23 22 28 31 26 26
3 9 10 18 42 54 54 41 50 46 32 41 44 47 46 45 42 34 20 3 10 64 66 63 56 52 50 51 52 44 46 47 43 34 31 23 27 26 27 27 30 30 27 25
7 7 10 13 41 53 50 43 49 44 48 41 37 43 44 47 48 38 28 23 4 63 64 60 56 52 53 52 54 45 53 47 46 38 36 25 32 29 20 15 12 20 18 21
4 22 17 36 31 40 49 48 39 42 49 48 46 41 41 48 43 44 41 22 12 21 63 61 56 53 56 53 60 51 58 54 52 43 39 32 38 38 31 23 15 19 14 13
8 20 20 24 28 39 36 36 41 42 37 39 42 40 41 49 42 41 41 34 19 12 58 64 60 56 54 58 61 55 66 60 58 50 45 40 37 35 33 29 17 17 25 20
22 27 15 33 34 39 24 35 36 43 30 33 38 36 37 42 39 45 40 44 31 12 12 64 61 57 51 61 59 58 64 65 61 53 51 47 42 44 39 37 32 27 30 37
28 16 15 17 20 37 39 41 44 41 41 33 31 30 33 38 39 46 39 39 34 21 11 28 65 59 53 60 64 66 62 66 60 55 52 53 46 48 45 45 43 36 34 41
29 19 18 22 25 28 30 37 43 46 40 36 34 31 28 30 32 39 33 41 53 39 29 5 59 62 57 55 63 67 67 66 61 53 58 53 54 54 52 50 47 46 49 49
27 30 25 26 27 26 27 25 25 25 23 31 33 32 26 26 25 34 32 42 38 35 30 31 17 49 65 61 67 69 72 70 65 59 55 56 55 57 54 56 56 53 43 49
26 19 17 27 22 24 27 27 24 19 26 30 23 29 31 23 27 29 32 35 37 44 43 38 27 21 42 61 70 72 71 69 67 63 63 61 58 57 59 60 58 58 55 50
22 31 22 25 28 24 29 24 21 18 16 21 23 27 28 25 22 21 32 31 36 47 51 45 27 14 19 23 63 75 75 69 66 63 64 63 63 63 62 62 63 60 59 59
30 33 27 35 34 35 33 36 32 33 28 18 19 20 24 29 27 21 22 29 36 37 34 46 38 27 6 13 21 49 61 75 70 61 60 71 67 67 70 65 64 64 61 67
25 25 22 25 29 30 28 31 30 32 34 33 24 21 21 20 26 26 23 27 29 24 22 23 36 36 25 9 3 20 31 34 68 70 62 57 69 70 67 73 72 70 69 72
18 23 19 22 19 23 23 27 27 38 38 44 53 39 21 20 27 27 22 30 31 24 23 26 29 29 27 12 10 13 4 10 11 47 76 70 66 71 78 70 76 78 74 76
14 20 17 14 15 16 23 26 25 36 46 46 49 55 61 55 42 34 34 34 35 28 24 26 29 33 26 23 18 11 11 15 12 16 4 45 74 76 76 84 78 79 80 80
9 13 12 13 16 19 23 19 26 34 37 47 48 47 53 61 60 56 42 34 29 27 26 26 27 30 29 18 19 20 17 14 18 18 18 13 5 25 56 75 84 84 84 85
8 18 16 8 14 19 17 21 19 16 31 38 44 44 51 55 61 64 65 53 44 37 20 20 23 24 24 21 19 18 20 24 36 30 31 29 20 19 30 35 59 91 82 81
15 14 16 10 17 17 22 15 20 22 21 25 32 40 47 49 57 66 72 72 62 49 42 31 21 18 21 26 26 27 22 19 24 26 25 31 36 34 32 14 13 27 77 63
15 24 22 24 13 24 16 17 19 18 22 18 21 34 42 45 50 59 64 70 75 70 57 47 39 28 23 24 26 24 22 19 19 18 19 27 28 30 32 30 24 16 15 24
Wind_Direction_850mb
274 283 279 266 284 299 304 261 230 233 263 224 268 140 138 140 139 143 142 148 155 160 160 166 164 167 166 173 169 173 183 185 187 204 161 155 169 162 168 171 172 165 171 98
286 275 194 251 268 281 278 281 267 247 245 289 258 130 132 142 142 144 149 154 160 164 165 168 168 168 165 174 168 180 177 177 185 142 138 153 166 179 166 169 168 158 155 178
289 182 163 298 256 264 261 274 276 243 196 228 96 73 139 140 145 149 153 158 165 166 168 169 170 168 170 174 171 180 169 168 157 155 153 147 163 166 174 168 162 177 193 180
256 139 198 233 339 228 237 278 320 251 169 110 95 72 52 89 127 158 156 163 167 169 170 170 170 169 170 172 173 178 171 161 154 155 140 147 154 161 164 172 176 195 189 172
270 222 334 351 350 354 336 25 356 73 64 22 2 83 24 45 81 81 149 170 171 172 170 168 169 170 170 169 173 181 171 161 164 163 158 161 169 168 173 186 192 196 208 189
15 299 279 184 324 331 314 64 343 15 76 28 6 100 247 39 52 77 98 173 169 170 169 167 169 171 173 172 177 185 179 165 167 170 169 171 193 195 198 197 202 195 187 195
197 194 246 335 333 310 121 39 311 341 54 51 9 210 75 66 58 82 68 161 170 170 170 170 171 174 174 177 181 179 180 178 177 174 168 190 189 178 168 167 173 181 185 178
210 43 337 358 319 57 334 330 298 30 31 59 50 51 52 50 54 62 67 131 171 170 170 172 174 176 176 182 179 183 182 183 178 170 168 171 171 167 165 153 158 166 169 167
354 75 336 330 334 360 322 287 342 58 29 27 37 40 41 40 45 41 40 79 174 174 171 175 179 184 179 184 179 183 184 185 178 175 181 186 168 158 154 143 145 154 158 149
17 1 311 328 346 345 337 343 10 32 36 31 37 30 33 32 37 29 42 110 161 179 175 177 183 187 185 185 179 184 187 184 179 180 178 174 159 146 158 154 153 153 159 162
319 301 327 352 345 338 333 357 11 10 22 29 35 31 26 31 24 12 17 42 263 184 184 182 186 187 185 188 184 190 188 185 182 186 187 173 171 166 174 185 163 166 162 171
292 331 335 317 334 357 334 341 0 5 9 25 34 37 27 28 20 12 11 351 18 203 194 189 189 187 186 190 188 194 191 185 184 187 192 179 177 187 204 196 185 219 173 119
310 319 331 330 352 339 335 346 358 360 19 25 28 30 28 25 19 12 8 16 3 345 209 196 191 191 189 191 194 202 195 190 183 187 191 192 190 198 194 191 182 158 188 169
342 338 331 347 345 4 2 356 2 11 20 23 23 26 19 13 13 14 1 0 356 6 146 199 196 195 193 192 198 205 204 200 199 200 204 203 204 205 210 208 201 182 171 185
341 359 344 340 350 359 18 18 23 12 16 16 14 18 9 0 1 10 4 0 11 34 58 198 202 198 196 192 201 203 207 203 205 204 206 209 206 208 213 214 216 216 199 181
8 24 22 28 22 15 13 16 15 13 11 9 24 13 354 355 357 4 5 16 19 21 26 349 200 205 200 195 200 207 208 210 208 207 209 209 211 211 217 220 218 219 219 216
12 12 20 23 36 32 20 11 6 358 354 1 347 347 352 353 360 358 358 12 21 30 45 47 85 192 203 201 201 208 207 211 211 210 212 214 214 215 214 222 223 224 224 223
48 37 41 41 46 39 22 7 1 349 353 350 338 345 2 346 350 352 354 10 29 46 44 39 44 128 187 203 206 208 212 212 214 213 213 218 220 219 218 221 229 230 231 230
61 62 48 44 36 39 26 12 26 6 336 347 351 347 6 21 19 357 1 36 37 41 32 19 19 49 111 183 203 209 215 217 216 219 216 216 222 223 222 222 226 233 236 236
92 65 56 51 52 47 47 37 36 32 21 3 356 359 14 22 24 6 24 47 44 36 43 23 11 18 28 47 182 193 208 219 220 217 218 217 219 225 226 225 225 227 233 238
91 83 68 55 45 51 53 40 32 31 32 30 19 3 3 5 12 22 34 32 25 24 20 24 11 13 16 329 9 184 203 217 224 227 225 224 224 225 231 230 228 228 228 236
90 75 84 67 60 42 42 45 36 29 41 33 38 43 25 359 356 8 3 0 359 357 360 359 359 355 2 5 354 261 230 210 270 236 233 233 236 233 229 233 234 231 231 234
63 82 83 71 67 77 59 45 46 27 31 34 33 34 36 34 22 0 339 332 329 332 332 332 329 329 337 3 7 358 242 273 352 294 268 243 244 244 238 233 234 237 238 235
119 106 102 83 106 65 67 67 57 46 31 26 35 42 33 31 39 34 26 11 353 308 296 300 310 314 322 345 16 15 344 322 297 319 292 300 259 229 248 251 245 243 238 240
173 142 138 116 109 82 78 51 32 60 43 19 23 46 40 37 39 32 33 29 22 16 359 285 277 289 316 333 339 345 340 342 322 305 301 306 311 287 252 286 253 248 248 245
175 162 166 123 97 107 89 76 44 52 72 32 25 42 40 40 43 41 38 38 34 26 23 13 344 314 317 331 340 341 330 311 308 313 331 331 316 308 296 289 353 257 247 254
185 162 145 126 88 95 112 72 75 44 52 56 30 44 41 38 40 40 38 37 35 34 29 21 17 5 342 339 348 352 347 349 2 348 316 312 314 309 289 285 272 278 256 261